Theta_e
307 307 307 308 307 307 308 308 308 308 308 308 308 308 308 309 309 308 309 309 309 308 307 307 306 305 306 306 306 305 305 309 314 317 318 319 319 318 317 316 313 312 309 311 316 314 315 318 320 321 318 318 316 314 315 316 317 316 317 315 313 314 315 316 318 316 317 319 319 318 319 318 318 319 319 320 319 320 324 329 339 342 343 345 347 350 352 350
307 307 307 307 307 307 308 308 308 308 308 308 308 308 308 308 308 308 308 308 308 307 307 306 305 305 305 304 304 303 306 313 317 318 318 318 319 319 316 314 312 309 309 314 318 316 317 318 320 319 317 317 315 315 315 316 316 316 317 314 313 316 317 318 318 317 318 318 318 318 318 318 318 317 319 318 318 322 323 327 340 342 344 347 349 350 350 349
307 307 307 307 307 307 307 307 307 308 308 308 308 308 308 308 308 308 308 308 308 307 306 305 304 304 303 303 303 303 309 316 318 318 319 318 319 318 313 313 313 309 309 315 318 318 319 319 319 319 317 316 315 315 314 316 316 315 316 314 315 317 318 319 318 318 318 317 317 317 317 317 318 318 318 318 319 322 318 326 343 343 345 346 346 349 350 350
306 307 307 307 307 307 307 307 307 307 307 307 307 307 308 308 308 308 308 308 307 306 305 304 303 303 302 303 302 304 312 317 316 318 319 319 318 314 311 312 313 309 308 313 318 319 319 318 319 318 316 316 316 315 315 315 315 315 315 315 317 317 318 319 318 318 317 317 317 316 317 316 317 318 317 319 318 319 326 338 345 344 346 346 345 348 350 350
306 306 306 306 307 307 307 307 307 307 307 307 307 307 307 308 308 308 308 308 307 305 304 303 302 302 301 302 301 306 313 315 318 320 316 314 312 308 308 312 312 309 309 313 319 320 318 318 318 317 316 315 316 315 315 316 316 315 315 315 317 317 317 318 318 318 317 317 316 316 316 316 317 318 317 319 317 318 337 345 345 344 345 347 346 347 349 351
306 306 306 306 307 306 306 306 307 306 307 307 307 307 307 307 308 307 307 308 307 304 302 301 301 301 301 301 302 308 314 314 319 318 313 311 310 307 308 312 310 309 312 315 320 320 317 318 317 317 316 315 316 315 315 316 316 315 315 316 316 316 317 317 318 317 317 316 316 316 316 317 317 318 317 318 318 318 333 340 341 343 343 346 348 347 350 351
305 305 306 306 306 306 306 306 306 306 306 307 307 307 307 307 307 307 307 307 306 302 301 301 300 301 300 301 305 313 314 313 318 318 314 310 309 308 309 312 309 310 315 318 321 321 316 318 317 317 315 315 316 315 316 315 315 315 315 316 316 317 317 317 318 317 317 316 316 316 316 317 316 317 317 317 318 319 328 336 338 340 341 345 348 348 350 351
305 305 305 306 306 306 306 306 306 306 306 306 306 307 307 307 307 306 306 306 305 301 301 300 300 301 301 305 311 314 314 316 319 316 311 309 309 310 312 313 309 312 318 319 321 320 317 317 317 317 316 316 315 315 316 315 315 315 315 316 316 316 317 317 317 316 317 316 316 316 316 316 316 316 316 317 319 318 326 335 336 338 340 344 347 349 351 351
305 305 305 305 306 306 306 306 306 306 306 306 306 306 306 306 306 306 305 305 304 302 300 299 300 300 302 309 314 313 315 320 319 313 310 311 311 312 313 313 311 314 319 319 319 318 317 316 316 317 315 315 315 315 316 315 315 315 315 316 315 316 316 316 317 316 316 316 316 315 316 316 316 316 315 316 318 317 323 331 335 337 337 342 346 348 350 350
305 305 305 305 305 305 305 305 305 306 306 306 306 306 306 306 306 305 305 305 304 301 298 298 299 300 304 311 314 314 315 319 319 318 317 316 313 313 314 314 312 315 318 319 318 317 316 315 316 316 316 315 314 314 315 315 315 315 316 315 316 316 316 316 316 316 316 316 316 316 316 316 316 316 315 316 317 318 321 326 333 335 335 339 344 347 349 350
305 304 305 305 305 305 305 305 305 305 305 305 305 305 306 306 305 305 304 303 301 299 298 298 299 303 309 313 313 315 312 315 320 320 320 317 315 315 316 314 313 316 318 317 317 316 316 316 316 315 314 314 313 314 315 315 315 315 316 315 316 316 315 316 315 316 316 316 317 316 316 315 316 315 315 317 317 319 320 326 334 335 336 340 342 346 347 347
304 304 305 305 305 305 305 305 305 305 305 305 305 305 305 305 304 304 303 301 299 299 298 299 301 305 311 312 313 314 310 312 317 319 319 316 315 315 316 314 314 317 317 316 316 315 316 316 315 314 313 313 313 314 314 315 315 315 315 314 315 315 315 316 315 316 316 316 316 316 314 314 315 315 316 317 317 320 320 329 337 336 339 341 343 344 343 344
304 304 304 304 305 305 305 305 305 305 305 305 305 304 303 303 303 302 300 299 298 300 301 302 304 308 313 314 314 313 311 311 314 319 318 316 316 316 317 315 314 316 316 315 315 314 314 314 314 313 313 313 313 314 315 315 315 314 315 314 313 313 313 315 316 315 315 316 316 315 311 311 316 315 316 317 317 322 321 329 337 336 340 342 342 342 342 344
304 304 304 304 304 304 304 304 304 304 304 304 304 303 302 301 301 300 298 298 299 303 305 305 306 311 314 315 315 312 311 311 314 317 317 317 317 317 318 316 315 316 316 316 316 315 314 314 314 313 313 313 314 315 316 315 314 315 314 314 313 310 311 316 316 315 316 316 317 315 309 310 315 315 317 317 317 321 321 326 334 334 338 340 341 342 342 344
304 304 304 303 304 304 304 304 304 304 304 304 303 302 300 299 299 299 298 301 304 305 306 305 306 313 316 315 315 312 311 311 313 315 315 317 317 317 317 316 315 316 317 317 316 316 315 314 313 312 313 313 314 315 316 315 315 315 312 310 312 310 310 317 316 316 315 315 316 314 309 311 315 316 317 317 317 320 321 322 330 334 336 337 339 341 341 342
304 304 304 303 303 304 304 304 304 304 304 303 302 300 298 298 300 300 301 305 305 305 307 309 310 312 314 314 315 312 310 310 311 313 314 316 317 317 316 316 316 317 317 317 316 316 315 314 313 312 313 314 314 314 315 314 312 315 312 308 310 311 310 314 316 316 316 315 316 314 312 313 315 317 317 318 317 319 321 320 329 337 336 335 336 339 340 340
303 303 304 303 303 303 303 303 303 304 304 303 300 298 298 303 305 304 305 306 305 306 310 315 314 312 313 314 314 313 312 310 310 312 314 316 317 316 316 316 316 316 317 316 316 315 314 313 313 312 313 313 314 314 313 310 310 312 313 310 311 312 311 311 314 317 317 316 316 315 315 314 315 318 317 318 318 319 320 320 330 338 337 336 335 335 337 338
303 303 303 303 303 303 303 303 303 304 304 302 298 299 303 309 309 308 309 309 310 311 311 314 315 315 315 314 314 314 314 313 310 310 313 315 316 316 316 315 315 315 315 315 315 314 313 313 312 312 313 313 314 314 311 310 311 311 312 311 310 312 312 312 314 317 317 316 316 315 315 315 315 317 317 318 318 318 319 319 331 338 338 338 336 334 336 336
302 303 303 303 303 303 303 303 303 303 303 300 298 302 309 312 311 311 312 313 314 315 315 315 314 313 315 314 314 315 315 314 312 310 312 313 314 315 316 315 315 315 315 315 315 314 313 313 312 311 311 313 314 314 313 313 314 314 314 313 311 310 312 315 316 317 317 315 315 315 313 315 316 316 318 318 318 319 319 320 328 336 338 337 335 337 339 338
302 302 302 302 303 302 303 303 303 303 302 301 302 307 313 316 317 317 315 314 315 315 314 315 313 311 312 312 313 315 316 316 314 311 311 312 313 313 314 314 315 315 316 316 315 314 313 312 312 311 312 313 314 315 316 315 316 316 316 314 313 312 312 316 317 316 317 315 315 316 314 315 316 316 317 317 318 319 319 321 322 330 337 336 335 336 338 338
302 302 302 302 302 302 303 303 303 302 300 301 304 309 314 315 315 316 314 314 315 316 314 313 313 313 313 312 313 315 315 315 315 312 312 312 312 312 312 313 315 316 316 316 316 315 314 312 312 312 313 314 315 316 317 316 316 316 315 314 313 313 313 317 318 316 317 315 314 316 315 315 316 316 317 317 318 318 318 321 321 322 331 335 334 333 335 335
302 302 302 302 302 302 303 302 302 301 299 301 306 309 312 312 310 311 310 310 312 314 315 315 313 312 314 314 313 315 314 314 314 314 314 312 311 311 312 313 315 316 316 316 317 316 314 313 313 314 314 314 315 316 317 316 316 316 316 314 313 314 314 315 318 317 317 315 315 316 315 315 316 316 317 316 317 318 319 319 321 320 323 327 328 332 334 334
302 302 302 302 302 302 302 302 301 300 299 303 309 310 311 310 309 310 310 310 311 311 313 314 313 312 312 313 313 313 313 313 313 314 315 313 311 311 312 313 314 315 316 315 316 315 314 314 314 314 314 315 315 315 316 317 317 316 316 314 313 315 313 311 314 318 318 316 316 316 315 315 317 317 317 318 317 317 318 318 320 320 320 323 322 328 334 335
302 301 302 302 302 302 302 301 299 300 300 303 307 310 310 308 308 310 310 311 311 311 311 313 313 312 311 312 312 312 311 312 313 314 316 314 312 311 312 314 313 314 315 315 315 315 315 317 315 314 314 315 315 315 316 317 317 318 318 316 314 315 313 312 314 317 317 317 318 317 314 313 316 317 316 318 318 317 317 317 319 319 319 322 320 325 335 337
301 301 302 301 302 302 301 300 302 305 307 308 308 309 308 307 309 310 311 313 314 313 312 313 313 312 312 312 312 312 311 311 311 314 316 314 313 313 312 314 313 313 314 315 315 315 316 318 317 315 314 314 315 315 316 317 316 316 318 318 315 315 315 314 316 315 313 313 317 316 311 311 314 316 316 317 317 318 317 317 318 318 318 320 319 327 337 338
301 301 302 301 302 301 300 305 310 310 310 311 310 309 307 309 310 311 313 315 315 314 313 312 312 311 313 312 312 313 311 310 310 312 316 315 315 314 313 313 314 313 314 315 315 315 316 317 317 316 315 315 314 315 317 317 315 312 315 317 316 315 315 315 315 313 309 309 316 317 312 310 312 314 316 317 316 316 317 317 317 318 318 320 318 325 336 338
301 301 301 301 302 301 303 309 310 308 308 309 309 309 307 310 311 311 316 317 313 314 313 311 310 311 312 313 313 311 310 312 310 310 314 316 315 315 314 314 313 313 314 314 313 314 317 317 316 316 316 316 315 315 317 317 314 312 315 316 316 315 314 314 314 312 312 312 315 316 312 310 309 312 318 319 317 317 318 318 317 317 317 320 319 318 330 337
301 301 301 301 301 301 303 306 306 308 310 310 310 308 308 311 311 312 320 321 316 314 314 311 311 311 312 313 312 311 311 312 311 310 312 315 315 314 314 314 314 314 314 313 311 314 318 317 316 317 316 316 315 316 316 315 314 314 316 316 315 317 315 315 314 311 313 313 311 312 312 310 308 312 318 317 316 316 316 319 320 319 319 320 322 320 327 336
301 301 301 301 300 301 303 304 305 307 308 309 308 307 309 311 311 314 320 322 317 313 315 311 311 312 313 313 312 311 312 313 312 311 310 313 314 313 313 314 315 315 314 313 312 314 317 316 316 317 316 316 316 317 315 314 315 315 316 316 315 317 316 316 315 311 312 312 310 310 310 310 308 311 316 316 320 322 321 324 326 326 326 326 327 325 329 335
301 301 301 300 301 303 306 306 307 305 305 307 307 308 311 311 314 317 318 319 314 312 314 312 311 312 312 313 312 312 312 313 313 312 310 311 313 312 313 314 314 314 315 314 313 314 316 316 317 316 316 317 316 316 315 314 315 315 315 315 315 316 316 316 314 311 311 311 310 309 310 310 308 311 317 320 325 329 329 328 328 329 329 327 328 326 325 331
301 301 301 300 301 304 307 309 309 307 307 307 308 310 312 313 316 319 318 315 312 313 312 312 312 312 312 312 313 312 312 313 313 312 310 310 312 311 312 314 314 314 314 314 313 313 315 316 317 316 316 316 316 315 315 315 315 316 315 314 313 313 313 313 311 311 311 311 310 309 310 310 307 313 323 326 328 330 330 329 329 330 328 326 327 325 325 332
300 300 300 301 302 302 305 308 309 309 309 309 310 311 313 315 314 317 318 312 310 313 312 312 313 312 312 312 313 313 313 313 313 312 310 310 311 311 311 313 313 313 312 313 314 313 314 315 316 317 316 316 316 314 314 315 316 316 314 313 312 311 311 311 310 310 311 311 310 310 310 310 312 318 326 329 328 329 330 330 330 330 328 328 329 327 330 338
300 300 301 301 302 302 303 305 307 309 309 310 311 311 315 317 314 314 316 311 310 312 311 313 312 311 312 311 311 313 313 313 313 312 312 311 311 311 311 311 313 314 312 313 313 312 313 315 315 316 316 316 316 314 312 313 314 314 312 311 311 311 312 312 311 311 312 310 310 312 310 311 319 326 328 329 330 329 330 331 333 334 332 333 333 331 335 338
300 300 301 302 303 304 303 305 308 310 310 311 312 313 316 318 316 312 312 311 311 311 311 313 311 311 311 310 311 313 313 313 313 313 313 311 310 310 311 310 311 314 314 313 313 312 312 313 314 314 315 316 316 314 314 314 314 315 314 313 312 311 311 312 311 311 314 314 313 315 312 313 321 328 329 329 329 328 329 330 332 333 333 334 334 334 336 335
301 303 304 304 305 305 305 307 309 310 312 312 312 314 316 317 316 312 310 310 310 311 311 311 310 310 310 310 311 312 313 313 313 313 313 312 311 311 311 311 311 313 313 312 312 313 312 312 315 315 315 316 315 314 315 315 313 315 316 313 311 312 311 311 311 312 315 316 315 314 314 320 327 329 328 328 327 327 328 330 331 332 333 334 335 336 336 333
303 307 309 309 309 308 307 308 310 310 313 314 313 314 315 314 313 311 309 309 309 309 309 309 309 308 308 309 310 312 313 313 314 314 313 313 312 311 311 311 311 312 312 312 313 313 312 313 316 316 316 316 315 315 315 314 313 314 314 312 313 315 313 310 311 313 314 316 316 312 314 324 330 329 328 328 327 327 328 330 332 333 334 336 336 336 334 332
305 311 313 313 313 312 310 309 310 310 312 314 315 315 314 312 310 309 308 308 308 309 307 306 308 307 307 308 309 311 312 313 314 313 312 313 312 311 311 312 312 311 312 312 313 314 314 314 317 316 316 316 316 316 315 315 314 313 312 312 314 315 312 312 311 313 315 315 315 312 313 322 328 330 331 331 330 330 329 331 333 333 334 336 336 335 333 330
306 310 314 315 313 312 311 309 310 310 311 313 316 315 313 311 310 308 308 308 308 308 307 305 307 308 307 307 309 312 312 312 314 313 312 312 313 313 312 312 313 311 312 312 313 315 315 313 315 316 316 316 316 316 314 315 315 314 314 315 315 312 311 311 311 313 315 316 316 312 312 322 328 329 331 332 332 333 331 332 333 333 333 334 334 333 332 329
306 311 314 313 311 312 311 310 310 310 309 311 313 313 312 310 309 307 307 307 306 306 306 305 307 308 308 308 310 312 312 312 313 314 313 312 315 317 314 312 314 312 312 312 313 315 316 313 314 316 316 316 317 315 312 313 315 314 314 315 316 314 312 312 311 312 313 315 318 313 314 327 330 329 330 332 332 333 332 333 332 331 330 330 331 331 331 330
309 313 314 310 310 312 312 310 310 309 309 309 310 310 310 308 308 307 307 307 307 306 307 307 308 309 309 309 309 311 312 313 313 314 314 313 315 317 315 314 314 313 313 313 313 314 315 316 315 316 315 315 315 314 313 313 314 313 312 312 314 314 313 315 315 313 311 313 316 315 319 330 330 327 329 331 332 332 332 332 332 331 329 329 330 331 331 331
312 315 315 311 310 312 311 310 310 310 309 309 309 309 308 308 309 309 309 308 307 307 309 310 310 310 310 310 310 310 311 312 313 313 314 316 317 317 317 317 316 314 314 314 314 315 315 316 316 315 314 313 313 315 315 315 314 314 312 311 312 313 313 314 315 315 313 313 316 318 324 331 330 327 329 331 331 331 331 331 332 331 330 329 330 330 329 329
313 315 315 313 311 311 310 309 309 310 309 309 310 310 309 310 309 309 310 309 308 308 309 310 310 310 310 311 310 310 311 311 312 312 313 318 320 318 317 319 317 316 316 314 314 315 317 316 314 314 314 313 316 316 315 316 315 315 314 313 314 313 312 312 313 317 316 314 317 320 324 330 330 327 329 330 330 330 328 330 331 329 328 328 327 327 326 326
314 315 316 315 313 311 311 311 310 310 311 311 311 311 310 310 309 308 309 310 310 309 309 310 310 310 310 310 310 309 310 310 312 312 312 317 320 319 317 318 317 317 319 319 319 318 317 315 312 313 315 314 316 316 315 316 315 314 314 315 314 313 314 313 313 318 318 315 319 322 323 329 329 327 329 329 328 327 326 326 327 326 325 325 324 324 323 323
314 315 316 315 314 314 315 315 313 312 313 312 312 311 311 310 310 309 309 310 310 309 310 310 310 310 310 310 309 309 310 311 312 312 312 316 319 318 317 317 317 319 320 322 324 321 318 315 313 315 316 315 315 316 317 318 315 314 315 316 316 315 315 316 316 319 317 315 320 323 324 329 329 327 328 328 326 325 324 323 322 322 322 322 322 322 321 322
314 314 315 315 315 316 316 316 315 313 312 312 313 312 311 311 309 309 309 310 310 310 311 311 311 310 310 310 310 310 310 311 311 312 313 316 318 318 317 318 318 319 321 324 326 322 319 319 318 317 318 318 318 318 318 318 317 318 318 316 318 317 316 321 322 319 317 316 319 321 326 331 331 329 328 326 325 324 323 321 320 320 320 320 320 320 320 320
314 314 314 314 315 315 315 314 314 314 312 312 313 312 312 311 310 310 309 310 310 310 310 311 311 311 311 311 312 311 310 310 310 310 311 316 319 318 317 320 321 320 322 325 324 320 320 323 321 318 320 321 321 320 322 321 319 319 319 318 321 323 322 324 323 321 323 324 323 324 329 331 331 329 326 325 323 321 320 319 318 318 318 318 318 318 318 317
314 314 314 314 314 313 313 313 313 313 312 311 312 312 312 311 311 311 310 309 310 310 310 310 311 311 311 312 312 312 311 311 310 310 309 313 319 319 316 319 321 322 322 322 321 321 322 322 320 321 322 321 321 321 322 323 320 320 323 325 326 326 327 326 323 323 327 327 325 327 330 331 330 327 323 321 320 319 318 317 316 316 315 316 316 315 314 314
314 314 313 312 313 312 312 313 313 313 312 312 312 313 313 312 312 312 311 309 310 310 310 311 311 311 311 311 311 312 312 311 312 312 309 313 319 320 318 319 321 320 320 321 321 322 323 322 322 324 324 321 320 321 322 322 322 322 325 328 328 327 328 330 328 327 328 326 325 328 330 330 326 322 319 318 317 316 315 314 314 313 313 313 313 312 311 311
314 314 313 311 312 312 312 312 312 312 313 313 313 313 313 313 313 313 311 311 311 310 309 310 311 310 310 310 310 312 312 312 314 316 314 316 319 320 320 321 321 318 318 322 323 323 323 323 324 324 324 324 322 321 321 322 323 325 324 324 326 326 327 327 328 328 327 327 328 328 326 324 320 317 316 315 314 313 312 311 311 311 311 311 310 310 309 308
314 314 313 311 311 313 313 312 312 312 313 312 312 313 313 314 313 313 312 311 312 312 310 310 311 310 310 310 309 311 312 313 316 318 318 317 318 319 320 321 321 319 317 320 323 323 322 322 323 323 322 323 323 321 320 321 324 324 323 322 323 325 325 326 327 327 328 330 329 325 323 320 316 314 314 312 311 311 310 309 309 308 308 308 308 307 306 306
314 314 313 311 311 311 311 312 312 312 312 311 311 312 312 312 312 312 312 311 311 312 311 311 311 311 311 311 311 311 312 312 314 315 316 316 316 317 318 319 319 319 318 318 321 322 321 320 322 323 322 322 322 321 320 322 323 323 321 320 321 323 324 325 325 325 327 329 329 326 325 320 315 313 312 310 309 309 308 308 308 306 306 306 306 305 305 304
313 313 311 311 311 309 309 311 311 310 311 311 311 311 311 310 310 311 310 309 310 311 310 310 311 311 312 313 312 312 311 311 311 312 312 312 313 314 315 316 316 317 317 319 320 320 320 319 320 322 322 322 323 323 323 323 324 324 320 318 319 321 323 323 323 322 323 325 326 325 322 317 314 312 311 308 307 307 306 306 306 306 305 304 304 304 304 303
Wind_Speed
8 8 8 8 9 9 11 11 12 12 12 12 12 13 13 13 14 13 12 13 13 13 13 14 14 14 14 15 17 17 18 18 18 14 15 16 13 10 7 9 9 10 13 13 13 13 13 14 13 13 11 8 7 7 9 9 7 6 5 6 7 7 9 4 6 7 5 9 8 6 6 3 2 3 4 3 8 9 4 5 11 15 12 13 13 16 18 17
8 8 8 8 8 9 11 11 12 13 13 13 13 13 13 13 14 13 13 13 14 14 13 14 14 15 15 16 17 16 18 18 18 18 21 20 17 16 15 13 10 10 15 14 14 15 13 11 12 12 9 7 7 8 9 8 7 7 5 6 8 8 7 5 7 6 7 7 4 4 3 1 2 4 4 6 7 4 7 7 15 16 12 13 13 15 15 16
8 9 9 9 9 9 11 11 12 13 13 13 14 14 14 14 14 14 14 14 14 14 13 13 13 15 15 16 17 15 16 18 16 16 19 19 17 16 14 14 13 13 17 16 14 15 13 10 12 11 9 7 7 9 9 7 6 7 7 6 9 9 5 6 4 5 6 4 5 3 3 2 4 4 2 7 8 5 11 6 17 16 12 11 10 12 14 15
8 9 9 10 10 10 11 11 12 13 13 14 14 14 14 14 14 14 14 14 14 14 14 12 13 14 14 16 15 13 14 15 9 3 9 15 15 13 9 9 12 15 19 17 13 13 14 11 11 11 9 8 7 9 8 6 6 7 8 9 11 7 5 4 3 5 5 5 5 3 3 3 6 4 3 7 8 6 6 4 17 18 14 13 11 11 12 12
9 9 9 10 10 11 11 12 12 13 14 14 15 15 15 14 15 15 15 14 14 14 14 12 13 13 14 16 13 11 11 7 2 9 13 12 10 8 7 7 12 16 18 16 13 13 14 12 10 9 8 8 8 8 8 9 7 6 8 12 14 10 8 4 3 4 4 6 6 7 7 6 6 4 4 9 10 5 10 16 17 16 13 13 12 11 11 10
10 9 10 10 11 11 11 12 12 13 14 14 15 15 15 15 15 15 14 15 14 14 14 13 13 13 14 15 11 10 8 2 3 9 12 7 5 5 5 7 13 17 16 14 13 13 14 12 10 8 8 8 10 9 8 10 9 7 8 11 14 12 10 6 2 2 3 6 9 8 8 6 7 5 8 9 11 8 11 18 14 15 14 12 12 11 11 11
10 10 10 11 11 12 11 12 13 13 14 14 15 15 15 15 15 15 15 15 14 13 13 13 13 13 14 14 11 8 9 9 5 8 8 3 5 5 5 9 15 17 14 13 12 12 12 11 11 8 8 8 10 11 9 11 11 10 9 10 13 10 10 10 5 1 2 7 8 7 7 7 7 6 9 9 10 10 8 17 13 14 14 12 12 11 11 12
10 10 10 11 11 12 12 12 13 14 14 14 15 15 15 16 15 15 15 15 14 13 13 13 12 12 13 13 9 8 10 9 5 10 4 3 5 5 8 11 16 17 14 13 11 11 11 11 11 8 9 9 9 10 10 10 10 12 11 11 12 10 8 9 8 5 6 8 6 8 8 9 10 8 12 9 6 10 5 16 13 13 12 12 10 10 11 10
10 10 10 11 12 13 13 13 13 14 15 15 15 15 16 16 16 16 15 15 15 13 13 12 13 11 10 9 8 7 3 4 9 6 2 4 5 7 12 13 17 17 13 14 13 12 10 9 11 10 10 11 10 10 9 8 8 9 12 12 12 11 9 9 9 8 8 7 6 10 9 11 12 8 12 9 9 14 3 12 13 13 11 10 9 9 8 9
11 11 10 11 12 13 13 13 14 14 15 15 16 16 16 16 16 16 15 16 15 14 13 12 12 11 10 9 9 6 1 7 7 4 5 6 6 12 14 13 18 18 14 13 14 14 11 10 12 11 11 11 10 9 7 8 7 5 9 11 11 12 11 10 10 9 9 7 8 10 10 11 10 9 9 8 15 15 4 7 9 11 10 9 8 8 6 8
11 11 11 11 12 13 14 14 14 15 15 16 16 17 17 16 16 16 16 16 15 15 13 12 10 9 11 10 8 5 2 3 4 7 9 10 12 16 15 14 18 17 14 13 13 13 13 12 8 6 7 7 9 9 7 11 10 7 8 9 10 12 11 12 11 10 7 6 9 11 11 11 10 11 8 10 17 11 6 5 11 12 9 7 6 7 4 5
11 12 12 12 12 13 14 14 15 15 15 16 16 17 17 17 17 16 16 16 15 14 12 11 7 6 10 9 11 12 4 2 4 6 9 12 13 14 13 14 17 16 13 10 10 10 11 10 7 8 5 3 7 8 6 11 12 11 11 9 10 12 12 14 13 12 9 8 10 10 10 11 11 13 10 14 14 8 8 6 18 13 9 7 4 4 4 4
12 12 13 13 13 14 14 15 15 16 16 16 17 17 17 17 17 16 17 16 14 12 11 9 4 6 9 6 11 15 9 5 5 6 9 12 12 13 12 13 15 14 12 9 7 8 10 8 7 10 8 6 8 4 4 7 9 10 10 8 10 10 11 14 14 13 12 10 8 5 6 8 11 15 14 15 14 9 9 8 16 12 11 10 7 5 4 4
12 13 13 14 14 14 15 15 16 17 17 17 18 18 17 16 17 17 18 16 11 9 9 7 5 7 7 8 12 10 7 6 6 8 10 13 13 13 13 14 15 14 11 8 5 5 8 7 8 9 8 10 9 7 6 7 6 8 9 8 7 7 9 14 15 13 12 10 7 4 4 8 12 16 16 16 16 12 10 10 12 12 13 11 9 8 7 6
13 13 13 14 15 15 15 16 16 17 17 18 18 18 17 16 17 18 15 11 8 7 6 5 7 7 5 10 13 8 10 8 9 11 11 14 14 12 13 15 14 12 9 8 6 3 6 7 7 7 7 11 10 8 7 7 6 6 7 7 7 7 10 11 13 13 10 8 9 6 6 9 14 13 17 18 15 12 8 11 11 14 13 11 10 9 8 9
13 13 14 14 15 16 16 16 16 17 18 19 19 17 16 15 16 15 11 6 4 3 4 5 11 11 6 5 4 8 12 11 12 12 12 15 14 12 12 12 12 10 8 9 6 4 7 7 7 7 8 9 8 7 7 6 7 7 7 7 8 9 7 5 13 13 11 7 9 10 8 8 11 9 11 14 9 11 8 11 11 15 12 11 10 9 8 8
13 13 14 15 16 16 16 16 17 17 18 19 18 16 13 13 13 9 6 3 2 4 8 8 9 10 8 6 3 7 13 12 13 14 14 16 14 13 13 11 10 10 8 9 7 6 7 7 5 6 8 8 7 7 7 7 7 6 7 7 9 11 8 6 12 14 14 9 8 11 8 10 14 8 5 11 7 6 9 9 11 14 11 9 7 8 8 7
13 13 14 15 16 17 17 17 17 17 18 18 16 14 12 11 9 6 4 3 3 6 10 12 9 6 7 11 11 11 14 13 13 16 15 15 15 15 14 11 9 10 9 8 8 8 7 6 6 6 7 7 8 8 7 9 9 9 9 7 8 10 10 6 10 12 11 9 8 10 9 11 15 8 4 10 8 9 11 9 11 14 11 8 7 5 4 5
13 14 14 15 16 17 17 17 17 18 18 17 15 12 10 8 5 7 8 7 6 6 6 6 10 5 4 8 13 7 11 13 12 16 16 16 15 14 12 11 10 11 10 7 9 10 7 5 7 7 7 8 10 10 11 13 14 13 10 8 8 7 9 8 7 11 8 8 8 9 9 10 12 10 5 6 10 10 10 9 8 12 10 8 7 5 1 2
14 15 15 15 16 17 17 17 17 17 16 16 17 13 6 4 3 5 8 10 11 10 9 5 15 12 6 6 11 6 11 11 10 13 17 17 14 13 11 10 10 10 9 8 9 10 8 7 7 8 9 11 13 14 15 17 17 16 11 6 9 9 9 10 8 12 8 5 6 7 8 10 11 12 11 8 9 11 11 9 9 10 11 10 11 10 8 6
14 15 15 16 16 17 17 17 17 16 15 15 15 9 4 4 4 1 2 9 15 19 19 13 13 15 12 7 8 11 9 8 9 12 17 18 15 12 10 11 11 9 10 12 9 9 9 8 9 12 13 14 14 14 15 17 17 14 11 8 10 10 6 8 7 12 11 5 4 7 9 11 11 11 12 11 11 11 10 10 10 10 13 13 14 16 15 11
15 15 16 16 17 17 18 18 17 15 14 13 11 10 7 7 6 5 5 8 12 18 21 18 16 15 14 10 5 9 8 9 11 12 16 17 15 12 10 12 11 9 11 13 9 8 9 9 11 14 14 14 14 14 14 16 16 10 7 8 9 7 5 6 6 7 9 5 4 7 9 10 12 12 13 12 11 12 8 11 9 11 11 11 12 15 17 14
15 15 16 16 17 18 18 18 17 15 14 12 10 13 10 7 6 8 7 7 10 14 17 17 16 14 14 12 7 8 9 9 11 12 17 16 13 12 11 12 12 11 11 12 10 8 7 9 14 15 14 13 13 14 12 10 11 7 6 8 8 8 7 6 7 6 4 3 1 5 10 9 10 10 10 10 9 11 13 11 12 12 12 12 13 10 15 17
14 15 16 16 17 18 18 19 18 15 14 14 16 17 11 7 6 9 7 6 8 10 13 16 15 13 14 13 12 12 11 9 10 12 19 15 12 12 11 12 12 12 11 14 14 11 10 12 17 17 15 14 14 12 9 6 7 7 8 10 9 10 11 10 8 6 5 3 2 5 9 7 9 11 10 8 8 11 15 15 13 13 12 11 13 9 12 17
14 15 16 16 17 17 18 18 15 11 9 13 17 15 8 5 4 7 6 5 6 7 12 13 12 11 14 14 12 12 11 10 12 11 18 17 13 11 10 10 9 11 13 15 15 12 12 14 14 15 14 15 14 9 9 8 7 7 10 13 13 14 13 13 12 8 7 6 8 10 7 6 9 13 14 11 11 13 13 16 14 12 12 12 12 8 13 15
14 14 15 16 17 18 15 10 8 8 7 10 7 3 2 3 4 6 5 4 5 5 8 10 8 7 11 12 10 10 11 11 13 13 17 18 16 11 9 8 7 10 13 13 11 7 9 14 13 9 10 12 11 8 10 11 8 7 9 12 15 16 16 16 14 10 8 6 5 8 6 6 6 9 12 11 13 16 14 15 15 10 9 9 8 7 14 15
14 15 15 15 16 16 10 7 9 10 6 3 1 3 2 3 4 5 3 4 4 6 10 7 6 8 10 10 11 10 7 6 12 16 15 18 16 12 10 9 8 9 10 8 7 6 9 15 13 9 10 8 7 8 10 12 9 7 9 12 15 16 16 16 14 9 7 7 8 10 9 7 6 6 10 11 11 13 11 13 13 10 10 9 9 9 8 14
14 15 16 16 15 12 10 12 15 11 4 6 4 2 3 4 5 4 3 4 3 7 8 5 5 7 9 10 14 13 5 2 10 15 17 18 16 12 11 13 11 11 12 9 7 8 10 13 13 12 11 9 8 9 11 13 10 8 12 13 10 11 11 11 11 8 7 8 8 10 10 8 7 7 9 12 11 10 9 9 7 7 9 8 7 5 3 11
15 15 15 16 14 10 11 13 14 12 8 8 5 4 5 6 4 3 4 4 4 5 4 5 5 7 9 10 14 15 9 5 6 11 17 18 16 12 10 13 15 13 14 13 10 9 8 11 12 10 8 8 9 11 13 13 10 10 14 10 5 8 8 7 8 8 7 9 9 10 11 8 7 6 6 8 6 3 3 3 5 5 4 8 6 8 7 11
15 15 15 16 13 9 8 12 14 12 9 7 6 6 6 5 3 4 3 2 4 5 5 5 6 10 11 11 12 14 12 9 5 9 15 14 15 13 10 11 14 13 13 14 13 12 9 9 10 10 11 10 11 12 12 13 10 10 12 8 6 7 7 7 7 7 7 8 10 12 13 10 8 4 0 0 1 5 4 4 7 8 8 9 8 10 7 5
16 16 15 15 13 11 9 8 7 6 6 6 6 6 6 4 3 5 4 2 3 6 8 7 9 11 14 12 10 12 13 10 6 9 11 10 12 12 9 9 9 9 10 10 11 13 14 10 8 10 9 7 10 11 10 11 9 8 8 6 5 5 6 7 6 6 7 7 10 13 15 13 10 3 5 5 5 7 6 4 4 6 7 7 5 7 8 2
18 18 17 17 15 15 14 8 5 8 3 4 5 5 5 4 5 6 3 1 2 6 6 9 10 11 14 14 11 13 13 10 9 10 10 10 9 10 11 9 7 7 9 7 9 12 13 11 10 9 6 4 9 9 8 9 7 7 7 5 6 5 5 6 6 6 7 8 10 12 13 10 4 2 7 6 5 7 8 5 4 5 5 6 5 4 3 6
20 20 20 18 16 18 20 14 10 10 6 5 5 5 4 4 6 7 6 4 4 4 5 9 12 10 13 12 11 13 13 10 12 12 11 12 10 10 14 14 12 10 7 7 9 9 9 11 14 13 8 9 13 9 7 9 8 9 9 7 7 6 5 6 6 6 7 7 9 12 12 7 3 6 7 5 5 7 8 7 6 5 2 3 3 2 5 10
22 21 21 18 17 20 19 15 12 9 7 6 5 4 5 5 5 7 8 5 4 5 3 4 8 6 9 9 10 10 10 10 13 13 11 12 10 9 12 16 17 13 8 8 8 8 10 9 12 14 8 11 14 13 10 9 9 10 9 8 8 6 6 6 5 6 5 5 6 9 9 4 2 2 2 5 6 6 6 6 5 4 2 1 2 5 8 9
20 18 18 17 18 19 18 15 12 8 7 5 5 5 6 6 5 7 6 1 3 4 5 3 3 6 8 9 11 11 9 8 12 13 10 10 10 9 10 13 17 15 9 8 6 7 11 8 8 12 9 11 15 14 14 12 8 8 8 9 8 7 7 5 5 6 2 2 5 5 3 3 4 3 2 5 7 6 4 4 3 3 4 5 5 6 8 8
18 13 11 13 15 13 14 15 12 9 7 5 5 6 6 7 5 2 3 5 3 0 2 4 6 8 7 7 10 11 9 7 9 10 9 11 11 11 11 11 15 17 12 8 5 6 9 7 8 12 13 14 14 12 14 13 7 5 8 10 8 10 9 5 6 6 2 3 5 5 3 5 7 3 4 5 4 4 3 3 4 4 6 6 6 7 7 8
17 12 8 13 13 11 14 14 12 10 7 5 6 6 6 8 5 2 5 6 3 2 3 3 6 7 7 7 8 9 10 7 8 9 8 10 10 12 14 11 14 18 17 12 7 5 6 5 8 13 13 14 13 13 14 14 10 6 6 8 8 10 9 5 4 5 5 6 5 6 8 4 5 2 3 5 4 4 2 2 3 4 5 6 5 7 7 7
15 13 10 9 10 12 14 14 12 9 5 5 7 8 8 7 3 3 5 6 5 2 4 6 4 5 8 7 7 11 11 7 8 8 7 8 7 9 12 12 13 17 19 17 8 4 6 5 8 13 12 12 13 13 12 13 14 11 7 6 6 7 7 5 4 5 6 6 4 8 8 1 2 0 3 4 3 4 3 4 5 7 8 8 6 8 9 6
12 10 5 5 9 12 14 14 11 7 5 6 6 6 8 7 1 3 5 5 5 3 5 7 4 4 7 6 5 8 10 8 8 6 6 6 5 3 5 7 12 15 18 17 9 5 5 4 5 10 10 11 10 10 9 9 12 13 10 8 6 5 5 5 4 4 6 5 4 8 6 1 2 4 1 2 3 2 3 6 6 8 10 9 7 6 6 5
9 5 2 8 9 11 14 13 9 6 5 7 7 6 7 6 1 3 2 4 5 4 5 7 4 3 5 8 9 3 4 5 6 6 6 5 3 3 5 6 7 10 14 15 12 8 6 3 4 7 9 10 8 7 8 8 9 10 9 9 7 5 4 4 3 3 6 6 4 6 3 2 0 3 3 2 3 3 5 6 5 7 7 5 5 5 6 7
7 3 2 8 10 13 15 9 6 6 6 6 9 9 4 2 2 3 2 2 5 5 5 6 5 4 5 7 7 4 1 5 6 5 5 3 1 2 3 8 9 6 8 12 11 8 5 5 5 6 7 8 8 9 12 13 11 9 9 9 9 7 6 6 4 3 5 5 4 4 1 2 2 3 2 2 4 5 6 7 6 8 9 6 6 8 10 11
6 2 4 11 13 14 12 6 5 6 6 6 6 5 2 3 3 3 1 3 5 5 5 5 6 6 6 7 6 5 5 6 5 5 5 3 1 3 4 8 10 9 5 7 9 8 5 4 6 7 7 9 10 9 12 14 15 12 10 9 10 9 7 7 5 3 3 5 4 1 2 3 2 3 3 4 7 8 8 8 7 9 9 9 10 10 11 12
5 1 2 11 15 13 8 5 6 6 6 6 5 4 1 1 5 5 3 4 5 5 5 5 5 5 6 6 7 8 7 5 3 4 5 2 3 2 4 6 8 8 6 5 6 4 4 4 6 6 6 10 11 8 8 12 14 12 10 9 10 10 9 9 6 2 4 4 2 1 1 2 3 3 3 4 8 9 8 9 9 9 8 9 10 10 11 11
2 2 2 9 14 11 5 4 5 5 6 6 5 6 5 4 5 5 4 4 4 4 5 5 5 5 6 6 6 8 7 4 3 6 5 2 5 2 3 4 6 4 4 2 4 5 4 2 5 6 6 7 9 7 6 9 9 6 6 9 11 12 13 10 3 3 3 5 5 2 2 1 4 3 2 4 8 9 9 9 9 9 8 8 9 9 9 9
0 1 2 7 12 9 5 4 4 4 5 6 4 6 6 5 5 5 6 5 4 5 4 4 4 5 6 6 5 7 8 5 4 6 5 3 5 3 4 4 4 1 2 3 5 6 4 1 2 6 7 5 5 4 4 5 4 3 6 9 11 13 12 5 3 1 3 3 4 2 1 4 6 7 4 3 7 9 9 9 9 8 8 8 8 8 8 9
1 1 2 5 8 7 5 6 6 6 4 3 3 6 7 6 4 2 5 7 6 7 5 3 4 6 5 5 6 6 8 8 6 6 7 2 5 1 3 7 6 2 2 4 4 4 3 1 3 6 5 2 1 3 8 8 3 4 9 9 8 11 12 5 3 1 2 2 3 2 4 8 7 8 8 6 8 8 8 9 9 9 8 8 8 8 9 9
2 2 3 5 5 6 6 7 7 6 2 2 2 2 4 6 3 4 3 5 5 6 4 3 4 5 4 4 6 6 7 9 8 8 9 3 4 1 2 5 4 2 1 1 1 1 1 3 4 6 6 4 1 3 8 10 6 5 9 11 12 15 15 8 2 2 2 3 3 2 6 11 8 7 8 7 7 7 8 8 8 8 8 8 8 9 10 11
4 3 2 4 4 3 4 5 5 4 2 2 1 1 2 5 4 2 3 3 5 4 2 4 6 6 7 5 4 5 6 8 8 8 8 2 5 3 3 3 4 4 2 2 2 3 1 2 3 4 6 6 4 4 6 8 7 6 10 12 12 13 14 11 8 6 3 4 4 6 7 10 9 7 7 7 7 8 8 8 7 7 8 8 9 10 12 12
2 4 2 3 3 1 2 2 2 2 2 2 2 1 2 3 3 3 3 3 6 5 4 5 6 6 9 8 4 4 5 5 6 6 6 3 5 3 3 3 6 10 7 2 4 2 2 1 2 2 3 4 4 2 2 2 2 5 10 13 12 11 11 9 8 8 8 7 7 10 11 10 7 6 7 7 7 8 8 8 9 9 9 9 10 11 12 13
1 2 2 2 2 1 2 1 1 2 3 2 2 2 1 2 2 3 2 2 4 3 3 6 6 6 9 7 4 4 2 3 4 4 4 5 2 1 1 1 1 6 8 3 3 2 4 1 1 1 2 4 3 5 7 3 4 5 10 14 13 7 5 6 8 7 7 8 9 11 11 7 5 6 7 7 7 8 9 9 9 10 10 11 11 12 12 12
6 8 6 4 2 1 2 3 2 2 3 2 3 3 2 2 3 2 2 3 3 3 4 6 6 6 7 7 6 4 1 3 5 5 5 4 2 1 1 2 4 3 6 4 2 3 3 2 1 0 2 4 2 6 8 2 6 5 10 14 12 5 2 5 8 7 5 5 8 6 4 4 5 6 7 9 9 10 11 10 9 9 10 11 11 11 12 12
9 10 7 3 1 1 2 3 3 2 2 2 2 4 3 4 5 6 2 3 5 5 4 3 3 4 6 6 5 4 2 4 7 7 7 6 4 3 2 2 4 4 4 3 2 2 2 3 3 2 2 3 2 5 6 1 5 2 6 9 10 8 6 7 8 9 9 3 4 3 3 5 7 7 7 9 9 10 10 9 9 9 9 11 11 11 11 12
Wind_Direction
337 335 335 335 335 334 331 328 327 325 324 323 322 321 320 321 319 318 317 317 318 316 316 317 318 321 321 320 316 319 329 321 309 292 254 248 251 256 252 217 229 236 205 193 198 193 195 211 218 217 221 225 220 233 236 224 229 239 232 243 249 240 239 261 23 354 10 74 77 58 37 324 344 23 348 332 239 235 245 195 98 81 78 72 90 116 133 146
334 333 332 334 336 335 331 328 327 325 324 323 321 320 320 320 320 319 317 318 318 318 318 318 321 324 324 320 319 327 331 313 292 280 260 250 248 254 258 246 242 220 194 196 205 198 198 207 207 208 215 225 213 218 230 209 206 237 236 236 243 242 259 357 25 348 18 49 35 55 69 330 349 348 342 308 281 233 250 204 111 96 97 89 107 126 141 151
332 332 331 332 334 333 331 328 325 324 322 321 320 319 320 320 320 318 316 317 316 318 317 318 321 321 324 321 323 334 326 305 284 269 253 238 232 237 248 245 237 213 193 201 207 200 210 209 201 208 214 227 220 212 218 193 190 228 238 241 240 248 305 3 353 337 17 21 347 16 66 32 283 302 320 304 307 275 272 221 122 116 124 119 130 138 147 157
331 330 330 331 331 331 329 327 324 322 320 319 319 318 319 319 318 317 315 315 316 316 315 317 319 319 324 320 324 337 318 295 284 230 195 202 212 222 237 234 219 204 196 212 226 212 220 220 205 212 219 229 223 215 216 194 193 215 225 245 246 261 328 336 327 354 356 342 341 312 319 302 278 334 351 291 279 257 317 67 122 128 135 140 148 146 152 163
328 328 330 329 328 329 327 326 323 321 320 318 318 317 317 317 316 315 312 313 314 313 315 316 316 319 320 318 327 329 303 283 64 115 143 169 194 212 237 223 200 195 197 222 244 225 223 229 213 211 228 239 226 216 219 213 216 228 230 248 259 283 314 322 10 355 334 318 300 275 276 288 309 350 286 275 276 291 59 86 117 128 134 142 152 152 158 168
324 326 328 326 325 326 325 323 321 319 318 316 316 315 315 316 314 312 310 311 310 308 313 314 316 319 316 316 318 300 270 274 52 134 150 167 205 225 237 211 193 192 200 226 246 231 220 226 219 210 224 238 237 226 217 220 223 240 242 247 259 274 281 285 344 334 346 300 280 280 280 295 312 300 272 271 276 296 87 107 121 128 139 147 153 153 157 174
320 324 324 324 322 321 322 321 319 317 316 315 313 312 313 313 312 311 308 307 306 306 310 312 316 316 317 320 304 258 237 276 290 158 163 207 236 244 223 200 191 190 202 222 235 232 219 223 224 217 223 230 241 234 221 226 223 234 249 252 257 259 258 269 287 311 321 282 278 283 284 288 281 270 265 257 267 284 102 114 124 127 137 145 148 151 162 184
315 320 320 320 319 318 319 317 316 315 314 313 311 311 311 311 311 309 307 305 304 305 308 311 315 316 323 327 305 247 238 256 197 155 169 218 234 232 200 189 187 189 202 214 220 222 215 222 228 224 231 233 241 241 226 230 229 229 245 256 264 269 265 270 281 283 267 264 268 267 268 263 258 261 264 263 274 271 117 113 128 126 130 137 145 156 166 191
313 315 315 317 316 316 315 315 315 313 313 313 311 311 309 309 308 305 305 303 302 303 305 308 309 314 318 311 292 273 256 133 133 147 158 179 219 196 178 179 183 191 206 216 218 214 207 212 221 223 234 244 258 260 237 226 231 230 240 247 255 264 262 259 259 257 253 251 253 253 252 251 248 247 256 262 261 260 140 123 142 132 133 134 144 161 170 195
310 308 311 315 314 313 313 313 313 312 312 311 310 310 308 308 305 303 302 300 301 302 304 306 306 311 303 282 267 266 118 108 117 127 143 161 178 169 174 181 182 193 208 216 219 215 213 211 214 221 234 255 273 275 247 225 237 242 245 248 255 262 261 258 254 250 251 247 251 254 255 254 248 240 240 237 243 246 195 169 153 129 136 128 139 159 178 199
308 307 310 313 313 312 311 311 312 312 311 309 309 308 306 305 303 302 300 298 299 300 302 302 303 301 289 278 264 258 103 127 153 134 148 158 160 169 180 182 183 199 213 216 218 216 224 231 239 242 236 255 263 262 246 240 252 262 261 264 266 267 264 261 258 255 251 248 252 252 258 259 250 246 236 238 243 220 195 184 104 103 117 112 136 146 172 206
309 310 311 311 311 310 309 310 311 310 309 309 307 305 303 301 301 301 299 298 299 298 298 296 297 283 280 277 252 246 242 234 191 149 161 162 166 179 183 182 189 209 224 224 221 227 241 253 270 260 260 289 253 256 248 242 252 257 263 271 264 260 255 249 245 244 236 237 244 240 250 250 241 243 233 247 246 175 192 161 110 116 118 119 154 148 186 200
312 312 311 311 309 308 309 309 310 310 309 308 305 303 301 298 299 300 299 298 298 297 292 286 272 264 272 271 250 241 232 226 196 167 173 174 177 184 187 188 194 211 230 234 221 227 242 261 275 262 276 278 251 301 323 246 245 251 254 258 262 263 249 237 229 228 227 228 229 222 253 247 236 230 218 243 241 178 204 175 131 142 137 143 170 174 201 191
313 312 311 311 310 309 309 308 309 310 308 307 305 302 301 300 299 299 299 297 298 299 288 265 233 252 251 257 271 247 210 211 191 188 190 187 187 188 193 193 198 213 225 242 243 222 229 248 266 268 276 262 264 323 309 249 242 251 250 241 247 258 255 238 214 205 216 214 190 180 257 264 262 235 204 228 234 190 198 193 155 147 143 151 164 175 186 187
313 312 311 310 311 310 308 309 309 309 310 307 303 303 303 300 298 297 298 299 299 288 275 238 214 234 253 259 267 228 199 218 206 200 194 192 194 192 195 193 202 216 215 231 250 229 230 239 243 250 255 249 263 289 265 243 236 238 247 243 230 237 259 239 189 183 211 197 171 196 252 254 268 249 196 212 221 169 184 217 167 141 150 158 163 177 183 185
311 309 310 310 310 309 308 309 309 309 310 306 303 305 303 299 300 300 295 290 294 253 210 215 209 215 266 279 233 188 199 218 214 204 194 195 198 191 189 191 204 218 216 223 235 231 228 232 235 241 246 242 241 248 248 246 233 220 227 244 237 228 248 213 161 173 203 182 171 210 253 256 270 277 189 188 186 153 199 233 164 141 156 161 164 177 181 189
309 308 309 310 309 309 309 309 310 311 309 307 308 308 306 306 306 301 287 245 243 210 202 242 230 207 255 279 206 206 208 208 205 198 193 195 200 194 183 187 206 210 212 218 228 235 221 219 232 236 241 244 232 228 239 241 229 214 215 239 252 242 244 200 165 182 200 185 186 206 230 263 272 293 136 138 143 186 228 231 163 148 149 151 163 178 180 186
308 307 307 309 309 308 309 310 310 311 310 308 309 310 310 311 301 279 261 200 197 223 226 257 261 222 250 245 234 227 202 192 193 191 192 192 203 206 187 188 205 198 203 212 213 219 213 204 221 227 225 230 229 222 222 232 232 214 201 210 241 250 259 232 163 169 187 179 208 221 219 255 266 274 117 136 171 218 240 231 171 151 144 147 158 170 185 185
309 307 307 308 309 309 309 311 311 310 312 313 316 318 309 301 279 241 231 210 188 208 227 210 203 235 328 210 220 220 163 169 182 186 189 187 200 217 202 194 205 200 204 207 195 201 201 197 213 226 223 218 222 224 226 234 240 239 225 213 228 241 258 255 155 141 162 174 205 235 232 249 263 267 256 191 191 200 221 236 193 156 145 156 157 136 114 240
311 309 309 308 308 309 309 310 311 310 314 316 321 320 291 260 248 212 208 216 214 235 268 203 190 234 303 189 189 139 126 159 180 182 187 185 190 211 208 199 205 205 213 212 191 191 198 207 211 216 222 221 220 225 237 244 248 264 287 288 262 251 233 229 175 143 159 188 206 240 248 251 262 267 267 251 230 211 196 218 228 181 156 164 167 156 160 201
311 310 310 309 309 308 308 310 309 310 313 311 312 301 278 320 329 339 211 233 227 233 254 253 219 233 258 247 171 144 150 179 191 185 180 181 187 198 197 199 207 201 216 224 204 189 201 217 219 217 223 226 225 224 236 253 259 272 299 300 273 267 243 229 191 146 147 167 228 259 261 255 255 260 268 266 263 254 201 190 238 219 179 177 177 168 165 178
310 310 311 309 309 308 308 310 306 309 311 302 286 256 270 343 351 329 308 273 250 236 239 246 244 237 241 255 185 164 200 192 193 192 172 174 188 194 185 193 212 206 208 224 213 191 204 224 227 224 225 227 233 231 227 246 259 266 275 270 268 278 281 259 236 143 138 164 217 258 264 257 253 247 250 250 250 266 239 188 214 239 216 208 203 180 165 171
310 310 312 310 310 309 308 307 304 301 292 272 251 247 272 333 340 314 296 280 277 254 235 227 232 233 227 232 200 194 231 206 199 190 168 175 191 198 196 190 213 219 206 217 218 204 205 218 225 226 230 230 231 235 233 242 252 250 250 252 253 259 267 256 224 176 177 214 187 282 279 266 264 258 249 249 239 255 261 223 203 230 233 221 234 211 162 166
310 311 312 312 311 309 308 307 298 285 266 245 243 251 277 323 323 320 307 268 275 261 236 216 216 223 219 220 202 199 226 227 224 190 165 180 198 200 211 199 209 225 215 216 218 221 227 222 217 213 218 230 229 225 227 247 256 239 238 248 252 251 256 262 248 217 221 231 159 258 277 265 259 263 257 258 250 242 256 252 215 217 235 216 230 231 155 161
310 311 312 313 312 310 311 305 288 267 236 229 243 248 266 318 312 324 322 263 256 241 227 209 203 216 208 206 197 197 218 227 240 207 163 183 207 196 210 212 209 224 220 219 222 225 233 242 231 207 206 221 224 218 209 222 250 243 229 235 252 260 258 263 269 263 243 214 187 208 242 256 238 242 244 237 240 235 238 255 240 216 231 225 219 198 148 161
311 311 311 312 312 315 315 301 287 290 254 232 244 251 263 320 336 322 305 256 255 201 187 179 176 184 182 188 184 193 220 219 230 222 172 181 212 211 210 212 206 224 226 219 227 229 227 251 254 221 222 218 207 218 215 213 234 247 234 224 232 251 263 270 276 275 261 250 242 241 257 275 243 241 253 238 231 232 218 231 241 224 228 234 233 198 156 162
311 309 311 310 311 320 318 301 308 308 285 233 38 37 322 328 342 314 274 248 249 172 156 153 163 168 170 182 179 187 226 206 203 220 197 179 199 222 223 217 205 217 237 231 227 222 212 239 242 212 237 236 198 224 220 212 227 239 245 235 223 228 236 251 262 267 274 280 280 271 266 273 269 264 275 271 252 248 232 219 222 219 231 233 231 235 177 161
308 309 311 308 307 304 286 293 301 293 330 26 12 337 342 340 314 288 257 241 204 154 152 133 126 164 177 179 184 197 234 203 184 205 209 186 183 214 226 228 227 208 219 236 237 216 200 232 233 196 219 238 216 233 226 216 228 237 245 247 249 252 242 242 254 256 259 264 262 259 254 254 257 250 257 266 262 259 259 248 226 212 241 246 227 271 40 138
308 309 307 308 306 285 261 270 278 275 309 348 336 321 331 319 290 250 260 247 165 143 146 130 132 171 181 173 190 210 219 230 208 181 196 192 183 211 231 232 243 231 215 222 241 237 199 220 237 208 210 239 229 231 232 222 219 236 248 248 256 276 277 266 260 257 249 249 251 249 252 258 259 249 246 255 265 278 267 305 21 41 340 336 343 344 30 118
308 305 305 308 304 300 278 250 253 270 288 301 311 317 299 281 262 222 221 214 182 165 135 145 178 180 183 179 190 214 215 223 234 171 185 192 183 208 242 234 244 256 232 212 226 252 232 205 229 231 214 221 235 234 233 231 221 229 246 250 230 230 252 261 255 262 258 248 249 247 248 255 262 266 17 223 63 55 55 52 39 36 17 356 348 331 333 128
305 300 301 300 288 301 302 249 251 286 265 277 303 294 267 241 241 231 187 167 211 163 134 163 187 175 184 196 191 197 210 216 203 178 185 188 183 198 228 231 229 252 250 219 211 239 246 218 208 240 229 208 238 238 226 229 222 224 238 247 244 217 217 237 234 234 245 249 254 252 245 243 252 256 89 95 97 83 71 57 34 27 9 341 326 311 314 5
300 296 294 287 274 276 269 248 332 343 310 307 298 257 247 212 221 236 201 180 193 164 177 186 176 179 190 205 206 184 194 208 186 185 193 188 193 197 207 218 206 212 235 231 210 215 234 233 213 231 246 224 243 240 218 217 205 217 231 217 234 239 215 223 226 220 233 245 249 256 256 246 247 68 83 79 68 72 74 70 52 47 14 321 297 275 329 38
297 297 292 280 265 259 254 252 293 315 312 303 272 236 237 220 218 225 219 215 145 132 230 190 160 188 198 203 220 189 184 201 182 187 204 195 199 204 205 214 211 208 217 222 221 210 215 230 222 217 202 201 230 237 214 211 196 206 223 208 213 232 228 222 224 229 241 249 246 254 259 242 133 81 76 73 65 63 67 70 64 78 98 296 307 332 48 56
299 294 284 271 256 252 251 254 268 281 282 267 244 215 218 232 231 222 226 223 135 110 246 184 143 195 215 221 236 199 186 207 189 187 201 197 202 208 205 213 217 217 221 225 229 220 217 221 223 226 199 177 211 233 234 227 210 202 214 227 222 225 242 237 227 236 248 280 284 265 258 244 148 147 108 71 62 59 62 66 64 79 101 15 20 26 49 65
303 291 275 262 252 247 241 241 243 247 256 242 227 219 211 229 238 226 241 288 112 156 190 179 188 222 221 232 242 222 203 209 195 191 199 203 208 212 204 208 215 219 220 225 229 225 230 228 219 232 222 188 199 223 240 243 227 202 206 228 231 228 243 253 253 256 252 313 303 279 268 77 101 146 98 58 49 47 50 60 62 54 45 42 48 50 60 71
306 292 259 238 242 236 219 220 218 218 236 228 221 226 215 235 243 223 322 0 31 313 174 169 211 230 221 220 234 223 196 191 205 203 202 209 210 212 214 204 205 215 220 221 222 217 230 238 225 222 218 213 207 207 228 243 237 209 212 224 230 233 240 244 251 255 225 244 260 250 236 117 120 114 67 75 76 66 45 44 55 52 55 55 51 56 61 63
308 296 252 226 228 212 194 195 192 200 226 234 227 234 236 244 249 54 14 347 348 344 305 240 208 219 223 214 217 203 175 175 215 220 206 211 210 205 213 210 199 208 218 228 231 209 219 248 244 228 215 220 225 210 216 235 239 232 226 223 221 227 238 248 247 240 227 237 247 238 234 173 138 146 110 123 115 102 104 75 64 55 65 66 57 65 68 61
305 298 275 234 199 180 178 178 182 195 219 237 238 250 264 270 298 31 18 345 325 300 266 261 232 221 229 223 208 193 182 178 199 221 225 211 204 200 209 212 202 202 211 223 231 212 218 238 242 236 219 212 226 220 212 223 230 238 245 237 231 225 225 226 232 242 240 240 248 241 238 175 51 2 143 143 117 100 89 64 47 31 34 32 28 52 67 64
288 285 263 186 162 165 168 169 181 203 216 226 235 243 255 263 299 34 10 334 303 293 266 264 268 250 244 261 260 197 187 191 184 204 239 218 205 252 261 225 201 198 205 214 222 219 223 239 247 242 221 204 218 223 218 213 216 231 243 238 244 247 234 228 217 228 243 243 248 247 236 83 345 317 15 114 112 100 75 68 51 36 33 18 3 18 55 80
261 256 153 142 154 160 159 165 185 210 212 222 240 230 227 244 197 97 21 301 278 280 280 280 277 252 254 278 292 276 187 213 202 201 230 233 211 246 291 286 234 208 204 208 215 214 198 189 253 257 226 211 216 214 224 227 207 212 229 228 230 235 244 254 227 220 247 248 248 256 245 120 209 306 338 63 82 71 77 82 73 64 62 35 4 6 31 52
238 252 173 155 157 152 155 172 195 207 214 220 247 251 231 341 17 98 117 261 275 280 282 294 296 297 308 296 291 319 321 249 238 215 217 246 290 231 310 333 314 269 219 210 213 215 194 170 210 249 232 222 226 209 216 237 230 211 213 222 227 226 229 238 227 215 250 260 265 263 253 92 61 351 351 65 69 60 68 78 77 71 70 60 43 34 30 32
236 242 183 162 158 158 166 194 198 202 226 220 245 278 23 35 292 274 237 210 238 256 251 275 290 290 303 301 290 297 286 254 236 222 218 209 273 281 342 355 330 310 281 240 226 223 222 197 205 232 237 237 245 225 215 234 242 233 223 219 225 230 230 238 237 197 214 263 299 319 137 119 71 25 31 60 64 58 55 62 66 60 53 47 43 37 33 30
227 275 189 163 168 180 192 218 205 203 233 246 277 290 275 248 248 251 266 227 220 232 232 250 272 271 272 278 282 285 285 283 272 266 261 142 100 327 333 341 320 325 333 296 279 270 255 222 213 230 244 241 248 254 251 249 245 238 229 222 228 230 224 235 243 167 184 238 292 357 214 138 105 58 39 58 66 60 49 46 47 45 40 36 37 36 34 31
199 330 270 180 184 200 220 228 215 215 225 232 262 259 236 253 260 249 247 230 215 224 238 249 251 255 262 264 273 279 285 300 288 273 274 98 88 356 288 254 265 323 13 350 333 326 303 240 221 230 233 232 232 238 265 265 250 247 243 233 238 239 231 232 226 130 194 202 160 168 260 116 107 98 44 52 67 62 50 46 44 41 36 31 34 37 35 32
168 340 271 198 193 205 225 228 244 271 238 208 234 257 240 230 242 266 284 279 255 245 244 260 269 266 264 268 276 274 276 282 276 275 270 107 76 345 298 285 264 233 42 5 334 304 289 308 255 240 228 228 233 238 284 288 264 300 289 253 251 261 253 228 117 120 247 189 159 201 170 118 118 125 128 86 72 64 49 46 44 38 34 31 33 34 32 33
129 156 232 194 191 206 226 227 238 265 262 188 219 246 242 234 203 210 280 274 262 259 238 218 277 294 279 276 281 270 269 264 247 262 264 144 88 332 339 3 335 285 44 2 328 308 307 310 268 266 258 237 218 293 314 318 313 317 305 295 316 321 300 262 148 194 276 82 30 333 129 130 131 123 114 85 70 64 46 38 36 31 28 27 32 33 32 34
198 217 197 175 187 206 218 225 228 244 253 165 222 242 242 255 226 159 221 255 252 266 268 231 248 269 262 265 276 275 282 273 252 248 251 207 109 150 63 37 326 259 102 278 236 69 321 264 269 293 299 299 349 324 312 315 316 322 331 345 10 7 344 330 39 89 128 103 18 307 147 134 130 116 99 84 75 67 52 40 32 30 25 21 27 30 30 32
221 278 218 192 219 198 203 239 228 217 217 201 240 327 258 263 270 204 203 250 241 221 240 263 247 244 249 246 252 267 274 277 276 266 256 217 85 33 358 13 320 312 278 226 79 58 269 266 318 339 331 317 332 352 333 329 330 355 16 12 15 19 10 6 24 37 72 123 168 196 158 125 121 111 94 89 83 73 60 45 36 35 31 25 26 29 28 28
241 308 269 213 253 109 131 249 226 166 208 224 210 232 252 261 281 263 221 238 249 208 184 239 243 249 259 245 230 265 263 268 298 313 308 354 72 57 357 346 334 332 307 232 87 38 246 92 9 354 338 297 302 332 309 310 344 28 38 31 26 24 14 18 32 30 44 83 131 141 118 98 95 96 90 86 82 78 67 48 39 33 28 27 26 29 29 24
201 290 290 241 255 104 126 187 203 170 179 189 192 184 224 240 251 289 283 266 288 290 256 261 266 279 285 279 259 270 294 323 321 323 332 349 38 99 21 234 262 319 298 249 123 235 246 129 44 344 287 269 260 250 247 208 110 73 50 41 40 31 353 17 37 25 38 77 100 107 103 95 89 91 88 77 71 71 63 52 45 32 25 27 26 28 29 24
275 267 276 282 245 147 160 191 202 215 189 177 209 189 187 241 199 167 319 305 285 273 266 279 293 302 304 305 290 267 308 354 316 281 278 304 299 198 224 229 206 236 272 258 177 220 235 189 136 52 276 273 264 255 256 173 97 73 47 36 29 32 48 57 44 10 12 110 132 122 106 117 119 105 86 70 61 59 54 48 45 36 29 29 29 29 28 25
282 269 264 279 263 174 221 207 179 217 204 135 194 194 187 240 204 153 137 268 229 219 241 272 302 301 284 282 293 303 324 325 310 297 286 285 275 234 215 246 240 240 259 257 216 218 205 198 192 160 226 277 0 328 298 187 140 97 37 27 13 22 70 88 64 29 22 63 154 134 99 120 127 115 88 71 60 55 51 43 39 39 36 34 34 32 30 28